Pope Field Airport, NC

8:08 AM EDT on June 26, 2017 (GMT -0400)
Pope Field Airport

Weather History for KPOB - March, 2012

Change the Weather History Date:

Saturday, March 24, 2012

  Actual Average Record
Temperature  
Mean Temperature 68 °F -  
Max Temperature 78 °F 65 °F 86 °F (2007)
Min Temperature 60 °F 42 °F 26 °F (2004)
Cooling Degree Days 4    
Growing Degree Days 18 (Base 50)    
Moisture  
Dew Point 63 °F    
Average Humidity 82    
Maximum Humidity 95    
Minimum Humidity 58    
Precipitation  
Precipitation 0.09 in - - ()
Sea Level Pressure  
Sea Level Pressure 29.87 in    
Wind  
Wind Speed 5 mph (SSW)    
Max Wind Speed 13 mph    
Max Gust Speed 18 mph    
Visibility 10 miles    
Events Rain , Thunderstorm    
Averages and records for this station are not official NWS values.
T = Trace of Precipitation, MM = Missing Value Source: NWS Daily Summary

Daily Weather History Graph

Daily Weather History Graph

Search for Another Location

Airport or City:

Trip Planner

Search our weather history database for the weather conditions in past years. The results will help you decide how hot, cold, wet, or windy it might be!

Date:

Astronomy

Mar. 24, 2012 Rise Set
Actual Time 7:13 AM EDT 7:31 PM EDT
Civil Twilight 6:48 AM EDT 7:56 PM EDT
Nautical Twilight 6:18 AM EDT 8:26 PM EDT
Astronomical Twilight 5:48 AM EDT 8:56 PM EDT
Moon 7:57 AM EDT (3/24) 9:41 PM EDT (3/24)
Length of Visible Light 13h 08m
Length of Day
12h 18m
Waxing Crescent, 4% of the Moon is Illuminated
Mar 24
Waxing Crescent
Mar 30
First Quarter
Apr 6
Full
Apr 13
Last Quarter
Apr 21
New

Hourly Weather History & Observations

Time (EDT) Temp. Dew Point Humidity Pressure Visibility Wind Dir Wind Speed Gust Speed Precip Events Conditions
12:55 AM 70.5 °F 63.7 °F 79% 29.99 in 10.0 mi SSW 3.5 mph - N/A   Overcast
1:55 AM 69.3 °F 63.3 °F 81% 29.98 in 10.0 mi Calm Calm - N/A   Overcast
2:55 AM 68.5 °F 63.3 °F 83% 29.96 in 10.0 mi SSW 6.9 mph - N/A   Overcast
3:55 AM 68.2 °F 63.0 °F 83% 29.94 in 10.0 mi SW 5.8 mph - N/A   Mostly Cloudy
4:55 AM 67.5 °F 62.8 °F 85% 29.93 in 10.0 mi SSW 4.6 mph - N/A   Overcast
5:11 AM 68.0 °F 62.6 °F 83% 29.92 in 10.0 mi SW 4.6 mph - N/A   Light Drizzle
5:22 AM 68.0 °F 62.6 °F 83% 29.92 in 10.0 mi Variable 3.5 mph - N/A   Overcast
5:53 AM 68.0 °F 62.6 °F 83% 29.94 in 10.0 mi SW 5.8 mph - N/A   Light Drizzle
5:55 AM 67.3 °F 62.8 °F 85% 29.94 in 10.0 mi SSW 4.6 mph - 0.00 in   Light Drizzle
6:45 AM 66.2 °F 62.6 °F 88% 29.94 in 10.0 mi SSW 3.5 mph - N/A   Mostly Cloudy
6:55 AM 66.4 °F 63.5 °F 90% 29.94 in 10.0 mi SSW 4.6 mph - 0.00 in Rain Light Rain
7:55 AM 65.7 °F 63.3 °F 92% 29.95 in 9.0 mi Calm Calm - 0.01 in Rain Light Rain
8:44 AM 66.2 °F 64.4 °F 94% 29.95 in 10.0 mi Calm Calm - N/A   Overcast
8:50 AM 66.2 °F 64.4 °F 94% 29.95 in 10.0 mi SSE 3.5 mph - N/A   Light Drizzle
8:55 AM 65.7 °F 63.9 °F 94% 29.95 in 10.0 mi SSE 3.5 mph - 0.02 in   Light Drizzle
8:58 AM 66.2 °F 64.4 °F 94% 29.95 in 10.0 mi Variable 3.5 mph - N/A   Light Drizzle
9:05 AM 66.2 °F 64.4 °F 94% 29.95 in 10.0 mi South 3.5 mph - N/A   Mostly Cloudy
9:26 AM 66.2 °F 64.4 °F 94% 29.95 in 10.0 mi Variable 4.6 mph - N/A   Mostly Cloudy
9:55 AM 66.6 °F 64.6 °F 93% 29.95 in 10.0 mi South 4.6 mph - 0.00 in   Overcast
9:56 AM 66.2 °F 64.4 °F 94% 29.95 in 10.0 mi Variable 4.6 mph - N/A   Light Drizzle
10:07 AM 66.2 °F 64.4 °F 94% 29.95 in 10.0 mi South 4.6 mph - N/A   Overcast
10:21 AM 68.0 °F 64.4 °F 88% 29.95 in 9.0 mi SSW 5.8 mph - N/A Rain Light Rain
10:22 AM 68.0 °F 64.4 °F 88% 29.95 in 8.0 mi SSW 6.9 mph - N/A Rain Light Rain
10:38 AM 68.0 °F 64.4 °F 88% 29.94 in 10.0 mi South 5.8 mph - N/A   Mostly Cloudy
10:55 AM 67.8 °F 64.4 °F 89% 29.94 in 10.0 mi South 4.6 mph - 0.01 in   Mostly Cloudy
11:05 AM 68.0 °F 64.4 °F 88% 29.94 in 10.0 mi Variable 3.5 mph - N/A   Overcast
11:11 AM 68.0 °F 64.4 °F 88% 29.94 in 10.0 mi WSW 5.8 mph - N/A   Overcast
11:48 AM 69.8 °F 64.4 °F 83% 29.93 in 10.0 mi SSW 6.9 mph - N/A   Overcast
11:53 AM 69.8 °F 64.4 °F 83% 29.92 in 10.0 mi SW 8.1 mph - N/A   Overcast
11:55 AM 70.3 °F 64.9 °F 83% 29.92 in 10.0 mi SSW 5.8 mph - N/A   Overcast
11:56 AM 69.8 °F 64.4 °F 83% 29.92 in 10.0 mi SSW 6.9 mph - N/A   Overcast
12:00 PM 69.8 °F 64.4 °F 83% 29.92 in 10.0 mi SW 5.8 mph - N/A   Overcast
12:49 PM 73.4 °F 66.2 °F 78% 29.89 in 10.0 mi Variable 6.9 mph - N/A   Light Drizzle
12:55 PM 71.8 °F 65.3 °F 80% 29.89 in 10.0 mi WSW 5.8 mph - 0.00 in Rain Light Rain
1:09 PM 71.6 °F 64.4 °F 78% 29.88 in 10.0 mi WSW 12.7 mph - N/A   Overcast
1:26 PM 73.4 °F 66.2 °F 78% 29.87 in 10.0 mi SW 10.4 mph - N/A Thunderstorm Mostly Cloudy
1:35 PM 75.2 °F 64.4 °F 69% 29.87 in 10.0 mi SW 8.1 mph - N/A   Mostly Cloudy
1:37 PM 75.2 °F 64.4 °F 69% 29.87 in 10.0 mi SW 8.1 mph - N/A   Mostly Cloudy
1:55 PM 75.4 °F 64.4 °F 69% 29.85 in 10.0 mi SW 10.4 mph - 0.00 in   Mostly Cloudy
1:59 PM 75.2 °F 64.4 °F 69% 29.85 in 10.0 mi WNW 5.8 mph - N/A   Mostly Cloudy
2:06 PM 75.2 °F 64.4 °F 69% 29.85 in 10.0 mi Variable 3.5 mph - N/A   Mostly Cloudy
2:17 PM 75.2 °F 64.4 °F 69% 29.84 in 10.0 mi West 10.4 mph - N/A   Light Drizzle
2:21 PM 75.2 °F 66.2 °F 73% 29.84 in 9.0 mi NW 9.2 mph - N/A Rain Light Rain
2:23 PM 75.2 °F 66.2 °F 73% 29.84 in 9.0 mi NW 8.1 mph - N/A Rain Light Rain
2:31 PM 73.4 °F 66.2 °F 78% 29.84 in 10.0 mi NW 4.6 mph - N/A   Mostly Cloudy
2:55 PM 76.5 °F 64.0 °F 65% 29.82 in 10.0 mi West 5.8 mph - 0.00 in   Mostly Cloudy
3:05 PM 75.2 °F 64.4 °F 69% 29.82 in 10.0 mi WNW 5.8 mph - N/A Rain Light Rain
3:06 PM 75.2 °F 64.4 °F 69% 29.82 in 10.0 mi WNW 6.9 mph - N/A Rain Light Rain
3:19 PM 77.0 °F 64.4 °F 65% 29.81 in 10.0 mi Calm Calm - N/A   Mostly Cloudy
3:21 PM 77.0 °F 64.4 °F 65% 29.81 in 10.0 mi WNW 3.5 mph - N/A   Light Drizzle
3:30 PM 77.0 °F 64.4 °F 65% 29.81 in 10.0 mi Variable 3.5 mph - N/A   Scattered Clouds
3:55 PM 77.9 °F 62.6 °F 59% 29.79 in 10.0 mi Calm Calm - 0.00 in   Partly Cloudy
4:55 PM 77.9 °F 62.2 °F 58% 29.78 in 10.0 mi South 8.1 mph - N/A   Scattered Clouds
5:46 PM 73.4 °F 64.4 °F 73% 29.78 in 10.0 mi ESE 12.7 mph 18.4 mph N/A Rain , Thunderstorm Light Rain
5:55 PM 71.1 °F 63.9 °F 78% 29.78 in 10.0 mi ESE 5.8 mph 18.4 mph 0.00 in Rain , Thunderstorm Light Rain
5:59 PM 69.8 °F 62.6 °F 78% 29.78 in 10.0 mi ESE 9.2 mph - N/A Thunderstorm Mostly Cloudy
6:19 PM 68.0 °F 62.6 °F 83% 29.78 in 10.0 mi ESE 10.4 mph - N/A Rain Light Rain
6:21 PM 68.0 °F 62.6 °F 83% 29.78 in 10.0 mi ESE 9.2 mph - N/A   Light Drizzle
6:39 PM 68.0 °F 64.4 °F 88% 29.78 in 10.0 mi SE 5.8 mph - N/A   Mostly Cloudy
6:55 PM 67.3 °F 63.7 °F 88% 29.78 in 10.0 mi SE 8.1 mph - 0.00 in   Overcast
7:55 PM 65.1 °F 58.3 °F 78% 29.81 in 10.0 mi South 3.5 mph - N/A   Clear
8:55 PM 63.1 °F 58.1 °F 84% 29.82 in 10.0 mi NW 3.5 mph - N/A   Mostly Cloudy
9:42 PM 64.4 °F 59.0 °F 83% 29.83 in 10.0 mi East 3.5 mph - N/A   Light Drizzle
9:49 PM 64.4 °F 59.0 °F 83% 29.82 in 7.0 mi ESE 3.5 mph - N/A Rain Light Rain
9:55 PM 63.3 °F 59.4 °F 87% 29.81 in 6.0 mi East 3.5 mph - 0.02 in Rain Light Rain
10:02 PM 62.6 °F 59.0 °F 88% 29.79 in 10.0 mi East 6.9 mph - N/A   Overcast
10:10 PM 62.6 °F 60.8 °F 94% 29.81 in 10.0 mi Variable 3.5 mph - N/A Rain Light Rain
10:19 PM 62.6 °F 60.8 °F 94% 29.81 in 10.0 mi SSW 3.5 mph - N/A   Mostly Cloudy
10:55 PM 62.1 °F 60.3 °F 94% 29.79 in 10.0 mi SE 4.6 mph - 0.00 in   Scattered Clouds
11:15 PM 62.6 °F 60.8 °F 94% 29.81 in 10.0 mi South 4.6 mph - N/A Rain Light Rain
11:26 PM 62.6 °F 60.8 °F 94% 29.81 in 9.0 mi Variable 5.8 mph - N/A Rain , Thunderstorm Light Rain
11:28 PM 62.6 °F 60.8 °F 94% 29.81 in 10.0 mi SSE 6.9 mph - N/A Rain , Thunderstorm Light Rain
11:49 PM 60.8 °F 59.0 °F 94% 29.79 in 9.0 mi Variable 3.5 mph - N/A Rain Light Rain
11:55 PM 61.5 °F 60.1 °F 95% 29.80 in 10.0 mi Calm Calm - 0.03 in Rain Light Rain